3788A6351 Weather Reports


time (UTC)temp
C
wind
direction
speed
KPH
gust
KPH
rain 1hr
cm
rain 24hr
cm
rain mn
cm
humidity
%
barometer
mb
20260504050116 8 0 0.0 1.6 0.00 0.08 0.00 62 1004.3
20260504044550 9 204 0.0 3.2 0.00 0.08 0.08 59 1004.4
20260504043042 8 0 0.0 0.0 0.00 0.08 0.08 62 1004.6
20260504041543 8 0 0.0 0.0 0.00 0.08 0.08 59 1004.7
20260504040046 8 0 0.0 0.0 0.00 0.08 0.08 57 1005.0
20260504034541 8 0 0.0 0.0 0.00 0.08 0.08 58 1005.3
20260504033054 8 0 0.0 0.0 0.00 0.08 0.08 57 1005.5
20260504031557 10 0 0.0 0.0 0.00 0.08 0.08 54 1005.6
20260504030050 10 0 0.0 0.0 0.00 0.08 0.08 54 1005.6
20260504024542 10 0 0.0 0.0 0.00 0.08 0.08 54 1005.6
20260504023046 10 0 0.0 0.0 0.00 0.08 0.08 52 1005.5
20260504021542 11 0 0.0 0.0 0.00 0.08 0.08 53 1005.6
20260504020040 12 0 0.0 0.0 0.00 0.08 0.08 48 1005.6
20260504014555 13 0 0.0 0.0 0.00 0.08 0.08 46 1005.7
20260504013048 14 0 0.0 1.6 0.00 0.08 0.08 44 1005.6
20260504011548 16 0 0.0 0.0 0.00 0.08 0.08 38 1005.6
20260504010104 17 0 0.0 1.6 0.00 0.08 0.08 35 1005.5
20260504004544 18 63 0.0 1.6 0.00 0.08 0.08 33 1005.5
20260504003042 18 72 0.0 4.8 0.00 0.08 0.08 31 1005.5
20260504001548 19 134 0.0 6.4 0.00 0.08 0.08 30 1005.6
20260504000049 19 0 1.6 6.4 0.00 0.08 0.08 32 1005.5
20260503234543 20 113 0.0 9.7 0.00 0.08 0.08 31 1005.4
20260503233048 20 266 1.6 8.0 0.00 0.08 0.08 29 1005.4
20260503231549 20 10 1.6 9.7 0.00 0.08 0.08 29 1005.4
20260503230047 21 25 1.6 11.3 0.00 0.08 0.08 30 1005.6
20260503224546 21 255 1.6 8.0 0.00 0.08 0.08 29 1005.4
20260503223042 21 297 1.6 12.9 0.00 0.08 0.08 29 1005.3
20260503221549 22 57 3.2 16.1 0.00 0.08 0.08 27 1005.3
20260503220058 22 134 3.2 17.7 0.00 0.08 0.08 29 1005.3
20260503214544 22 302 4.8 20.9 0.00 0.08 0.08 28 1005.6
20260503213047 22 30 4.8 16.1 0.00 0.08 0.08 28 1005.6
20260503211541 22 299 6.4 20.9 0.00 0.08 0.08 27 1005.8
20260503210055 22 286 1.6 16.1 0.00 0.08 0.08 27 1005.7
20260503204558 22 343 3.2 16.1 0.00 0.08 0.08 29 1005.8
20260503203059 22 34 4.8 20.9 0.00 0.08 0.08 28 1005.9
20260503201549 22 313 6.4 19.3 0.00 0.08 0.08 28 1005.9
20260503200049 22 94 3.2 12.9 0.00 0.08 0.08 29 1005.8
20260503194603 22 359 8.0 20.9 0.00 0.08 0.08 28 1006.0
20260503193047 22 24 8.0 19.3 0.00 0.08 0.08 27 1006.2
20260503191544 21 1 6.4 24.1 0.00 0.08 0.08 28 1006.2
20260503190049 21 338 8.0 19.3 0.00 0.08 0.08 30 1006.1
20260503184544 21 62 8.0 22.5 0.00 0.08 0.08 34 1006.1
20260503183052 21 279 6.4 17.7 0.00 0.08 0.08 33 1006.1
20260503181545 21 54 6.4 17.7 0.00 0.08 0.08 33 1006.2
20260503174540 20 319 6.4 19.3 0.00 0.08 0.08 37 1006.4
20260503173131 20 32 6.4 24.1 0.00 0.08 0.08 37 1006.4
20260503171548 20 311 4.8 17.7 0.00 0.08 0.08 38 1006.5
20260503081555 11 170 3.2 6.4 0.00 0.00 0.00 48 1009.9
20260503071545 12 228 16.1 24.1 0.00 0.00 0.00 44 1010.9